User: anonymous   Login
Location: Unspecified
(0.0000°N, 0.0000°E)
Time: 16:30:47
(UTC+00:00)
Language:

Skynet 4D - Orbit

View from above orbital plane
View from above orbital plane
View from above satellite
View from above satellite

Ground track
Ground track

The orbit data is extracted from the following two-line orbital elements,

1 25134U 98002A   18110.21008885 -.00000018  00000-0  00000+0 0  9996
2 25134  10.8103  28.9753 0001997  33.4451 251.2917  0.99153597 73881
Epoch (UTC): 20 April 2018 05:02:31
Eccentricity: 0.0001997
inclination: 10.8103°
perigee height: 36094 km
apogee height: 36111 km
right ascension of ascending node: 28.9753°
argument of perigee: 33.4451°
revolutions per day: 0.99153597
mean anomaly at epoch: 251.2917°
orbit number at epoch: 7388

The dashed part of the orbit path shows where the satellite is in the earth's shadow,  

DLR